When you browse on this site, cookies collect data to enhance your experience and personalize the content and advertising you see.
Visit our Privacy Policy to learn more. By continuing to use the site, you agree to this use of cookies and data.
  • In France
  • List of Countries
  • For 7 days
  • Water Temperature
  • Satellite Maps
  • Weather Map
  • Weather Widgets
  • user-avatar
    Login

    Hourly Weather Nashavar

    Today, 24 January, Thursday

    Time Temperature Precipitation Wind Pressure Humidity
    00:00 +9°C° 0 mm 3 mps 736 mmHg 31%
    01:00 +9°C° 0 mm 3 mps 736 mmHg 30%
    02:00 +9°C° 0 mm 3 mps 736 mmHg 30%
    03:00 +8°C° 0 mm 3 mps 736 mmHg 31%
    04:00 +8°C° 0 mm 3 mps 737 mmHg 32%
    05:00 +8°C° 0 mm 3 mps 737 mmHg 33%
    06:00 +7°C° 0 mm 4 mps 737 mmHg 34%
    07:00 +6°C° 0 mm 4 mps 737 mmHg 35%
    08:00 +6°C° 0 mm 4 mps 738 mmHg 37%
    09:00 +8°C° 0 mm 4 mps 738 mmHg 34%
    10:00 +10°C° 0 mm 4 mps 738 mmHg 30%
    11:00 +12°C° 0 mm 5 mps 738 mmHg 27%
    12:00 +13°C° 0 mm 5 mps 737 mmHg 26%
    13:00 +13°C° 0 mm 5 mps 737 mmHg 25%
    14:00 +14°C° 0 mm 5 mps 736 mmHg 23%
    15:00 +14°C° 0 mm 5 mps 736 mmHg 24%
    16:00 +13°C° 0 mm 4 mps 736 mmHg 25%
    17:00 +13°C° 0 mm 4 mps 736 mmHg 26%
    18:00 +12°C° 0 mm 4 mps 736 mmHg 26%
    19:00 +10°C° 0 mm 5 mps 736 mmHg 27%
    20:00 +9°C° 0 mm 5 mps 737 mmHg 28%
    21:00 +8°C° 0 mm 4 mps 736 mmHg 27%
    22:00 +8°C° 0 mm 4 mps 736 mmHg 26%
    23:00 +8°C° 0 mm 4 mps 736 mmHg 25%

    Tomorrow, 25 January, Friday

    Time Temperature Precipitation Wind Pressure Humidity
    00:00 +7°C° 0 mm 4 mps 736 mmHg 25%
    01:00 +7°C° 0 mm 4 mps 736 mmHg 24%
    02:00 +6°C° 0 mm 4 mps 736 mmHg 24%
    03:00 +6°C° 0 mm 4 mps 736 mmHg 23%
    04:00 +6°C° 0 mm 4 mps 735 mmHg 23%
    05:00 +5°C° 0 mm 4 mps 735 mmHg 23%
    06:00 +5°C° 0 mm 4 mps 735 mmHg 23%
    07:00 +5°C° 0 mm 3 mps 736 mmHg 23%
    08:00 +5°C° 0 mm 3 mps 736 mmHg 23%
    09:00 +7°C° 0 mm 4 mps 736 mmHg 21%
    10:00 +10°C° 0 mm 4 mps 736 mmHg 18%
    11:00 +12°C° 0 mm 4 mps 736 mmHg 16%
    12:00 +13°C° 0 mm 4 mps 735 mmHg 15%
    13:00 +14°C° 0 mm 4 mps 735 mmHg 14%
    14:00 +15°C° 0 mm 4 mps 735 mmHg 13%
    15:00 +14°C° 0 mm 3 mps 735 mmHg 14%
    16:00 +14°C° 0 mm 3 mps 735 mmHg 15%
    17:00 +14°C° 0 mm 3 mps 735 mmHg 16%
    18:00 +12°C° 0 mm 3 mps 735 mmHg 17%
    19:00 +11°C° 0 mm 3 mps 736 mmHg 18%
    20:00 +10°C° 0 mm 3 mps 737 mmHg 19%
    21:00 +10°C° 0 mm 3 mps 737 mmHg 20%
    22:00 +9°C° 0 mm 3 mps 737 mmHg 20%
    23:00 +9°C° 0 mm 3 mps 737 mmHg 20%

    Day after tomorrow, 26 January, Saturday

    Time Temperature Precipitation Wind Pressure Humidity
    00:00 +8°C° 0 mm 3 mps 737 mmHg 21%
    01:00 +8°C° 0 mm 3 mps 737 mmHg 21%
    02:00 +7°C° 0 mm 3 mps 737 mmHg 21%
    03:00 +7°C° 0 mm 3 mps 737 mmHg 22%
    04:00 +7°C° 0 mm 2 mps 737 mmHg 22%
    05:00 +6°C° 0 mm 2 mps 737 mmHg 22%
    06:00 +6°C° 0 mm 2 mps 738 mmHg 23%
    07:00 +6°C° 0 mm 2 mps 738 mmHg 23%
    08:00 +6°C° 0 mm 2 mps 739 mmHg 23%
    09:00 +8°C° 0 mm 3 mps 739 mmHg 20%
    10:00 +10°C° 0 mm 3 mps 739 mmHg 18%
    11:00 +12°C° 0 mm 3 mps 739 mmHg 15%
    12:00 +13°C° 0 mm 3 mps 739 mmHg 14%
    13:00 +14°C° 0 mm 3 mps 738 mmHg 14%
    14:00 +14°C° 0 mm 3 mps 738 mmHg 13%
    15:00 +14°C° 0 mm 3 mps 738 mmHg 14%
    16:00 +15°C° 0 mm 2 mps 737 mmHg 15%
    17:00 +14°C° 0 mm 2 mps 737 mmHg 16%
    18:00 +12°C° 0 mm 3 mps 738 mmHg 17%
    19:00 +11°C° 0 mm 3 mps 738 mmHg 18%
    20:00 +10°C° 0 mm 3 mps 739 mmHg 19%
    21:00 +9°C° 0 mm 3 mps 739 mmHg 19%
    22:00 +9°C° 0 mm 3 mps 739 mmHg 19%
    23:00 +9°C° 0 mm 3 mps 739 mmHg 19%

    27 January, Sunday

    Time Temperature Precipitation Wind Pressure Humidity
    00:00 +8°C° 0 mm 3 mps 739 mmHg 20%
    01:00 +8°C° 0 mm 3 mps 739 mmHg 21%
    02:00 +7°C° 0 mm 3 mps 738 mmHg 22%
    03:00 +7°C° 0 mm 3 mps 738 mmHg 22%
    04:00 +7°C° 0 mm 3 mps 738 mmHg 23%
    05:00 +5°C° 0 mm 3 mps 738 mmHg 24%
    06:00 +5°C° 0 mm 3 mps 738 mmHg 24%
    07:00 +5°C° 0 mm 3 mps 739 mmHg 24%
    08:00 +5°C° 0 mm 3 mps 739 mmHg 24%
    09:00 +8°C° 0 mm 3 mps 739 mmHg 22%
    10:00 +10°C° 0 mm 3 mps 739 mmHg 19%
    11:00 +12°C° 0 mm 3 mps 739 mmHg 16%
    12:00 +13°C° 0 mm 3 mps 738 mmHg 15%
    13:00 +14°C° 0 mm 3 mps 738 mmHg 14%
    14:00 +16°C° 0 mm 3 mps 737 mmHg 13%
    15:00 +16°C° 0 mm 3 mps 737 mmHg 13%
    16:00 +15°C° 0 mm 2 mps 737 mmHg 14%
    17:00 +15°C° 0 mm 2 mps 736 mmHg 15%
    18:00 +14°C° 0 mm 2 mps 737 mmHg 16%
    19:00 +11°C° 0 mm 3 mps 737 mmHg 17%
    20:00 +10°C° 0 mm 3 mps 738 mmHg 19%
    21:00 +10°C° 0 mm 3 mps 738 mmHg 19%
    22:00 +9°C° 0 mm 3 mps 738 mmHg 20%
    23:00 +9°C° 0 mm 2 mps 738 mmHg 20%

    28 January, Monday

    Time Temperature Precipitation Wind Pressure Humidity
    00:00 +8°C° 0 mm 2 mps 738 mmHg 20%
    01:00 +8°C° 0 mm 2 mps 737 mmHg 20%
    02:00 +7°C° 0 mm 2 mps 737 mmHg 20%
    03:00 +7°C° 0 mm 2 mps 737 mmHg 20%
    04:00 +7°C° 0 mm 2 mps 737 mmHg 20%
    05:00 +6°C° 0 mm 2 mps 737 mmHg 20%
    06:00 +7°C° 0 mm 2 mps 737 mmHg 21%
    07:00 +7°C° 0 mm 2 mps 737 mmHg 21%
    08:00 +7°C° 0 mm 2 mps 738 mmHg 22%
    09:00 +9°C° 0 mm 2 mps 738 mmHg 20%
    10:00 +12°C° 0 mm 2 mps 738 mmHg 17%
    11:00 +14°C° 0 mm 2 mps 737 mmHg 14%
    12:00 +15°C° 0 mm 2 mps 737 mmHg 13%
    13:00 +16°C° 0 mm 2 mps 736 mmHg 12%
    14:00 +18°C° 0 mm 1 mps 735 mmHg 11%
    15:00 +18°C° 0 mm 1 mps 735 mmHg 13%
    16:00 +18°C° 0 mm 1 mps 735 mmHg 15%
    17:00 +15°C° 0 mm 0 mps 735 mmHg 17%
    18:00 +14°C° 0 mm 0 mps 735 mmHg 17%
    19:00 +14°C° 0 mm 1 mps 736 mmHg 17%
    20:00 +12°C° 0 mm 1 mps 736 mmHg 17%
    21:00 +12°C° 0 mm 1 mps 736 mmHg 17%
    22:00 +11°C° 0 mm 1 mps 736 mmHg 18%
    23:00 +11°C° 0 mm 1 mps 736 mmHg 18%

    29 January, Tuesday

    Time Temperature Precipitation Wind Pressure Humidity
    00:00 +10°C° 0 mm 1 mps 735 mmHg 18%
    01:00 +10°C° 0 mm 1 mps 735 mmHg 19%
    02:00 +9°C° 0 mm 1 mps 734 mmHg 20%
    03:00 +9°C° 0 mm 1 mps 734 mmHg 20%
    04:00 +9°C° 0 mm 1 mps 733 mmHg 20%
    05:00 +9°C° 0 mm 1 mps 733 mmHg 20%
    06:00 +8°C° 0 mm 0 mps 733 mmHg 21%
    07:00 +8°C° 0 mm 0 mps 733 mmHg 22%
    08:00 +9°C° 0 mm 0 mps 733 mmHg 23%
    09:00 +11°C° 0 mm 0 mps 734 mmHg 20%
    10:00 +13°C° 0 mm 0 mps 734 mmHg 17%
    11:00 +16°C° 0 mm 1 mps 734 mmHg 14%
    12:00 +18°C° 0 mm 1 mps 734 mmHg 13%
    13:00 +19°C° 0 mm 1 mps 733 mmHg 13%
    14:00 +20°C° 0 mm 1 mps 733 mmHg 13%
    15:00 +19°C° 0 mm 1 mps 733 mmHg 14%
    16:00 +19°C° 0 mm 1 mps 733 mmHg 16%
    17:00 +18°C° 0 mm 1 mps 733 mmHg 18%
    18:00 +18°C° 0 mm 1 mps 733 mmHg 19%
    19:00 +15°C° 0 mm 0 mps 734 mmHg 19%
    20:00 +14°C° 0 mm 0 mps 734 mmHg 20%
    21:00 +14°C° 0 mm 0 mps 735 mmHg 21%
    22:00 +14°C° 0 mm 0 mps 735 mmHg 22%
    23:00 +13°C° 0 mm 0 mps 735 mmHg 22%
    Show more